W2GRK-15 Weather Reports


Display with metric or nautical units.
time (UTC)temp
F
wind
direction
speed
MPH
gust
MPH
rain 1hr
in
rain 24hr
in
rain mn
in
humidity
%
barometer
mb
20260502235331 57 23 2.0 4.0 0.00 0.03 0.03 37 1011.2
20260502235226 57 57 2.0 3.0 0.00 0.03 0.03 38 1011.0
20260502235121 57 265 1.0 2.0 0.00 0.03 0.03 38 1011.0
20260502235017 57 13 1.0 3.0 0.00 0.03 0.03 37 1011.1
20260502234928 57 9 2.0 4.0 0.00 0.03 0.03 37 1011.1
20260502234824 57 299 1.0 2.0 0.00 0.03 0.03 38 1011.2
20260502234720 57 29 2.0 3.0 0.00 0.03 0.03 37 1011.2
20260502234651 57 358 2.0 3.0 0.00 0.03 0.03 38 1011.1
20260502234527 57 40 3.0 4.0 0.00 0.03 0.03 37 1011.0
20260502234422 57 32 2.0 3.0 0.00 0.03 0.03 37 1011.1
20260502234318 57 21 1.0 2.0 0.00 0.03 0.03 37 1011.1
20260502234309 57 28 2.0 4.0 0.00 0.03 0.03 38 1011.0
20260502234125 57 45 1.0 3.0 0.00 0.03 0.03 38 1011.1
20260502234021 57 91 0.0 2.0 0.00 0.03 0.03 38 1011.2
20260502233916 57 96 2.0 2.0 0.00 0.03 0.03 38 1011.3
20260502233828 57 32 1.0 3.0 0.00 0.03 0.03 38 1011.1
20260502233743 57 52 1.0 2.0 0.00 0.03 0.03 37 1011.1
20260502233619 57 64 2.0 4.0 0.00 0.03 0.03 36 1011.2
20260502233531 57 51 3.0 6.0 0.00 0.03 0.03 36 1011.2
20260502233427 57 68 2.0 3.0 0.00 0.03 0.03 37 1011.1
20260502233322 58 346 2.0 3.0 0.00 0.03 0.03 37 1011.2
20260502233238 58 57 2.0 2.0 0.00 0.03 0.03 37 1011.3
20260502233129 58 353 1.0 4.0 0.00 0.03 0.03 37 1011.3
20260502233105 58 14 3.0 4.0 0.00 0.03 0.03 37 1011.2
20260502232920 58 58 1.0 3.0 0.00 0.03 0.03 37 1011.0
20260502232816 58 205 1.0 3.0 0.00 0.03 0.03 37 1011.2
20260502232727 58 355 2.0 2.0 0.00 0.03 0.03 37 1011.0
20260502232623 58 320 2.0 4.0 0.00 0.03 0.03 37 1011.0
20260502232519 58 344 1.0 2.0 0.00 0.03 0.03 37 1011.0
20260502232430 58 7 2.0 3.0 0.00 0.03 0.03 38 1011.1
20260502232326 58 290 2.0 4.0 0.00 0.03 0.03 37 1011.1
20260502232221 58 344 1.0 3.0 0.00 0.03 0.03 37 1010.9
20260502232117 58 7 2.0 4.0 0.00 0.03 0.03 36 1010.9
20260502232029 58 328 2.0 4.0 0.00 0.03 0.03 37 1011.1
20260502231924 58 83 2.0 3.0 0.00 0.03 0.03 37 1011.0
20260502231820 58 197 1.0 2.0 0.00 0.03 0.03 37 1010.8
20260502231715 58 119 1.0 2.0 0.00 0.03 0.03 37 1011.0
20260502231627 58 343 2.0 3.0 0.00 0.03 0.03 36 1011.1
20260502231543 58 358 2.0 4.0 0.00 0.03 0.03 36 1011.0
20260502231418 58 5 1.0 5.0 0.00 0.03 0.03 36 1010.9
20260502231330 58 35 4.0 6.0 0.00 0.03 0.03 36 1011.1
20260502231225 58 316 2.0 3.0 0.00 0.03 0.03 37 1011.1
20260502231121 58 30 2.0 4.0 0.00 0.03 0.03 36 1011.0
20260502231017 58 352 2.0 4.0 0.00 0.03 0.03 37 1011.0
20260502230928 58 314 3.0 5.0 0.00 0.03 0.03 36 1011.1
20260502230824 58 335 2.0 4.0 0.00 0.03 0.03 36 1011.0
20260502230615 58 351 3.0 6.0 0.00 0.03 0.03 36 1011.2
20260502230527 59 250 2.0 3.0 0.00 0.03 0.03 36 1011.1
20260502230443 59 359 3.0 4.0 0.00 0.03 0.03 36 1011.0
20260502230318 59 357 2.0 4.0 0.00 0.03 0.03 36 1011.1
20260502230230 59 332 1.0 3.0 0.00 0.03 0.03 36 1010.9
20260502230125 59 4 1.0 3.0 0.00 0.03 0.03 36 1011.0
20260502230021 59 18 0.0 2.0 0.00 0.03 0.03 36 1010.9
20260502225916 59 25 1.0 2.0 0.00 0.03 0.03 36 1010.9
20260502225828 59 50 1.0 2.0 0.00 0.03 0.03 35 1011.0
20260502225724 59 349 0.0 2.0 0.00 0.03 0.03 36 1011.0
20260502225639 59 1 1.0 3.0 0.00 0.03 0.03 36 1010.8
20260502225531 59 355 2.0 4.0 0.00 0.03 0.03 36 1010.9
20260502225426 59 60 2.0 4.0 0.00 0.03 0.03 36 1010.8
20260502225322 59 52 2.0 3.0 0.00 0.03 0.03 36 1010.8
20260502225218 59 243 1.0 2.0 0.00 0.03 0.03 36 1010.9
20260502225129 59 322 1.0 2.0 0.00 0.03 0.03 36 1010.9
20260502225024 59 16 2.0 3.0 0.00 0.03 0.03 36 1010.9
20260502224920 59 344 1.0 2.0 0.00 0.03 0.03 36 1010.9
20260502224816 59 34 0.0 2.0 0.00 0.03 0.03 36 1011.0
20260502224728 59 19 2.0 3.0 0.00 0.03 0.03 36 1010.9
20260502224643 59 18 1.0 3.0 0.00 0.03 0.03 36 1010.9
20260502224519 59 224 2.0 4.0 0.00 0.03 0.03 37 1010.9
20260502224450 59 166 2.0 3.0 0.00 0.03 0.03 37 1011.0
20260502224326 59 93 2.0 4.0 0.00 0.03 0.03 36 1010.7
20260502224222 59 80 3.0 4.0 0.00 0.03 0.03 36 1010.7
20260502224137 59 314 1.0 3.0 0.00 0.03 0.03 36 1010.8
20260502224029 59 22 1.0 2.0 0.00 0.03 0.03 36 1010.7
20260502223926 59 353 1.0 4.0 0.00 0.03 0.03 36 1010.6
20260502223819 59 26 2.0 4.0 0.00 0.03 0.03 36 1010.9
20260502223735 59 57 2.0 3.0 0.00 0.03 0.03 36 1010.8
20260502223626 59 30 2.0 4.0 0.00 0.03 0.03 36 1010.8
20260502223542 59 343 2.0 6.0 0.00 0.03 0.03 37 1010.8
20260502223417 59 342 1.0 4.0 0.00 0.03 0.03 36 1010.6
20260502223329 59 353 3.0 5.0 0.00 0.03 0.03 36 1010.7
20260502223224 59 310 2.0 4.0 0.00 0.03 0.03 36 1010.8
20260502223120 59 7 2.0 4.0 0.00 0.03 0.03 36 1010.7
20260502223015 59 332 2.0 4.0 0.00 0.03 0.03 36 1010.7
20260502222927 59 181 2.0 3.0 0.00 0.03 0.03 37 1010.6
20260502222823 59 287 2.0 3.0 0.00 0.03 0.03 38 1010.5
20260502222718 59 204 1.0 3.0 0.00 0.03 0.03 37 1010.6
20260502222630 60 26 2.0 4.0 0.00 0.03 0.03 36 1010.6
20260502222526 60 105 2.0 3.0 0.00 0.03 0.03 37 1010.7
20260502222421 60 21 2.0 3.0 0.00 0.03 0.03 36 1010.6
20260502222317 60 122 2.0 2.0 0.00 0.03 0.03 37 1010.8
20260502222228 60 99 1.0 2.0 0.00 0.03 0.03 36 1010.8
20260502222124 60 187 1.0 2.0 0.00 0.03 0.03 36 1010.8
20260502222039 60 165 1.0 2.0 0.00 0.03 0.03 37 1010.8
20260502221915 60 157 1.0 2.0 0.00 0.03 0.03 37 1010.8
20260502221907 60 194 2.0 3.0 0.00 0.03 0.03 37 1010.8
20260502221742 60 4 1.0 2.0 0.00 0.03 0.03 36 1011.0
20260502221638 60 74 1.0 2.0 0.00 0.03 0.03 36 1010.7
20260502221529 60 101 1.0 2.0 0.00 0.03 0.03 36 1010.8
20260502221426 60 333 2.0 4.0 0.00 0.03 0.03 35 1010.8
20260502221320 60 297 2.0 4.0 0.00 0.03 0.03 36 1010.8
20260502221216 60 281 1.0 2.0 0.00 0.03 0.03 36 1010.7
20260502221127 60 205 1.0 2.0 0.00 0.03 0.03 37 1010.8
20260502221023 60 1 2.0 4.0 0.00 0.03 0.03 36 1010.7
20260502220939 60 41 2.0 4.0 0.00 0.03 0.03 36 1010.8
20260502220830 60 38 2.0 3.0 0.00 0.03 0.03 37 1010.8
20260502220726 60 37 2.0 3.0 0.00 0.03 0.03 36 1010.8
20260502220621 59 78 2.0 2.0 0.00 0.03 0.03 36 1010.8
20260502220536 59 324 2.0 3.0 0.00 0.03 0.03 37 1010.9
20260502220427 59 351 2.0 4.0 0.00 0.03 0.03 36 1010.7
20260502220323 59 45 2.0 4.0 0.00 0.03 0.03 36 1011.0
20260502220239 59 193 1.0 3.0 0.00 0.03 0.03 37 1010.8
20260502220150 59 59 1.0 2.0 0.00 0.03 0.03 37 1010.8
20260502220026 59 345 2.0 4.0 0.00 0.03 0.03 36 1010.8
20260502215922 59 7 2.0 6.0 0.00 0.03 0.03 36 1010.8
20260502215817 60 41 4.0 7.0 0.00 0.03 0.03 35 1010.9
20260502215729 60 16 2.0 4.0 0.00 0.03 0.03 37 1011.1
20260502215625 60 39 3.0 4.0 0.00 0.03 0.03 36 1011.0
20260502215520 60 102 1.0 2.0 0.00 0.03 0.03 37 1010.8
20260502215416 60 37 3.0 4.0 0.00 0.03 0.03 36 1010.7
20260502215347 60 47 2.0 4.0 0.00 0.03 0.03 36 1010.6
20260502215223 60 24 2.0 3.0 0.00 0.03 0.03 35 1010.8
20260502215118 60 331 2.0 3.0 0.00 0.03 0.03 36 1010.8
20260502215030 60 43 1.0 3.0 0.00 0.03 0.03 36 1011.0
20260502214925 60 65 1.0 4.0 0.00 0.03 0.03 35 1010.8
20260502214821 60 67 4.0 6.0 0.00 0.03 0.03 34 1010.7
20260502214717 60 303 1.0 2.0 0.00 0.03 0.03 37 1010.9
20260502214628 60 137 1.0 2.0 0.00 0.03 0.03 38 1010.8
20260502214524 60 19 1.0 3.0 0.00 0.03 0.03 36 1010.9
20260502214419 60 36 0.0 3.0 0.00 0.03 0.03 36 1010.8
20260502214331 60 193 1.0 2.0 0.00 0.03 0.03 36 1010.7
20260502214246 60 209 1.0 2.0 0.00 0.03 0.03 36 1010.5
20260502214142 60 67 3.0 5.0 0.00 0.03 0.03 35 1010.8
20260502214017 60 339 3.0 4.0 0.00 0.03 0.03 36 1010.6
20260502213929 60 171 1.0 2.0 0.00 0.03 0.03 38 1010.7
20260502213845 60 9 2.0 2.0 0.00 0.03 0.03 38 1010.8
20260502213720 60 350 1.0 2.0 0.00 0.03 0.03 37 1010.7
20260502213616 60 22 2.0 6.0 0.00 0.03 0.03 37 1010.6
20260502213547 60 49 2.0 6.0 0.00 0.03 0.03 37 1010.6
20260502213423 60 342 1.0 2.0 0.00 0.03 0.03 38 1010.8
20260502213318 60 69 1.0 2.0 0.00 0.03 0.03 38 1010.6
20260502213230 60 75 0.0 1.0 0.00 0.03 0.03 38 1010.6
20260502213146 60 70 2.0 2.0 0.00 0.03 0.03 37 1010.7
20260502213022 60 134 1.0 2.0 0.00 0.03 0.03 38 1010.6
20260502212917 60 0.0 2.0 0.00 0.03 0.03 37 1010.7
20260502212829 60 338 2.0 3.0 0.00 0.03 0.03 37 1010.5
20260502212724 60 19 1.0 3.0 0.00 0.03 0.03 37 1010.6
20260502212620 60 59 2.0 3.0 0.00 0.03 0.03 37 1010.5
20260502212535 60 241 1.0 2.0 0.00 0.03 0.03 37 1010.5
20260502212427 60 110 1.0 3.0 0.00 0.03 0.03 37 1010.5
20260502212323 60 281 2.0 5.0 0.00 0.03 0.03 37 1010.5
20260502212218 60 350 2.0 4.0 0.00 0.03 0.03 37 1010.5
20260502212130 60 96 2.0 3.0 0.00 0.03 0.03 36 1010.5
20260502212025 60 352 2.0 4.0 0.00 0.03 0.03 36 1010.5
20260502211921 60 23 2.0 3.0 0.00 0.03 0.03 36 1010.5
20260502211816 60 163 1.0 3.0 0.00 0.03 0.03 37 1010.4
20260502211727 60 2 4.0 7.0 0.00 0.03 0.03 36 1010.6
20260502211623 60 3 2.0 4.0 0.00 0.03 0.03 37 1010.6
20260502211519 60 41 2.0 3.0 0.00 0.03 0.03 36 1010.3
20260502211450 60 48 2.0 4.0 0.00 0.03 0.03 37 1010.5
20260502211326 60 330 2.0 4.0 0.00 0.03 0.03 36 1010.5
20260502211222 61 339 2.0 3.0 0.00 0.03 0.03 35 1010.4
20260502211117 61 289 2.0 3.0 0.00 0.03 0.03 37 1010.6
20260502211029 61 20 1.0 2.0 0.00 0.03 0.03 37 1010.4
20260502210925 61 60 0.0 2.0 0.00 0.03 0.03 36 1010.4
20260502210840 61 304 1.0 4.0 0.00 0.03 0.03 35 1010.3
20260502210755 61 319 2.0 4.0 0.00 0.03 0.03 35 1010.3
20260502210627 61 4 1.0 3.0 0.00 0.03 0.03 35 1010.6
20260502210523 61 162 2.0 3.0 0.00 0.03 0.03 35 1010.4
20260502210418 61 225 2.0 3.0 0.00 0.03 0.03 37 1010.3
20260502210330 61 196 1.0 2.0 0.00 0.03 0.03 37 1010.4
20260502210226 61 58 1.0 3.0 0.00 0.03 0.03 35 1010.1
20260502210121 61 38 3.0 5.0 0.00 0.03 0.03 34 1010.3
20260502210016 61 356 2.0 5.0 0.00 0.03 0.03 35 1010.4
20260502205928 62 51 3.0 5.0 0.00 0.03 0.03 35 1010.3
20260502205823 61 274 1.0 2.0 0.00 0.03 0.03 36 1010.4
20260502205719 61 193 2.0 3.0 0.00 0.03 0.03 36 1010.2
20260502205631 61 173 3.0 4.0 0.00 0.03 0.03 36 1010.2
20260502205526 61 185 3.0 4.0 0.00 0.03 0.03 36 1010.3
20260502205442 61 190 4.0 6.0 0.00 0.03 0.03 37 1010.6
20260502205337 61 178 3.0 4.0 0.00 0.03 0.03 38 1010.4
20260502205229 60 75 1.0 2.0 0.00 0.03 0.03 37 1010.4
20260502205125 60 70 2.0 5.0 0.00 0.03 0.03 36 1010.5
20260502205040 61 334 4.0 5.0 0.00 0.03 0.03 35 1010.5
20260502204936 61 337 4.0 7.0 0.00 0.03 0.03 35 1010.4
20260502204827 61 12 2.0 3.0 0.00 0.03 0.03 35 1010.3
20260502204723 61 340 3.0 4.0 0.00 0.03 0.03 36 1010.3
20260502204619 61 305 3.0 4.0 0.00 0.03 0.03 38 1010.3
20260502204610 61 176 2.0 3.0 0.00 0.03 0.03 37 1010.4
20260502204426 61 188 2.0 4.0 0.00 0.03 0.03 37 1010.2
20260502204342 61 194 3.0 3.0 0.00 0.03 0.03 37 1010.4
20260502204217 61 312 2.0 4.0 0.00 0.03 0.03 36 1010.3
20260502204128 61 346 2.0 4.0 0.00 0.03 0.03 36 1010.4
20260502204024 61 306 2.0 4.0 0.00 0.03 0.03 36 1010.3
20260502203920 61 45 3.0 4.0 0.00 0.03 0.03 38 1010.4
20260502203815 61 298 2.0 4.0 0.00 0.03 0.03 38 1010.6
20260502203727 61 314 2.0 6.0 0.00 0.03 0.03 37 1010.4
20260502203623 61 342 2.0 5.0 0.00 0.03 0.03 38 1010.3
20260502203518 60 70 1.0 3.0 0.00 0.03 0.03 38 1010.4
20260502203430 60 339 2.0 3.0 0.00 0.03 0.03 36 1010.4
20260502203405 60 12 1.0 3.0 0.00 0.03 0.03 36 1010.5
20260502203221 60 25 2.0 4.0 0.00 0.03 0.03 36 1010.5
20260502203116 60 63 3.0 6.0 0.00 0.03 0.03 36 1010.4
20260502203028 60 61 2.0 4.0 0.00 0.03 0.03 36 1010.6
20260502202924 60 16 2.0 4.0 0.00 0.03 0.03 36 1010.6
20260502202819 60 25 2.0 4.0 0.00 0.03 0.03 37 1010.6
20260502202731 60 26 3.0 4.0 0.00 0.03 0.03 37 1010.6
20260502202627 60 3 2.0 3.0 0.00 0.03 0.03 38 1010.8
20260502202522 60 32 3.0 6.0 0.00 0.03 0.03 37 1010.7
20260502202438 60 24 4.0 6.0 0.00 0.03 0.03 37 1010.6
20260502202329 60 29 5.0 7.0 0.00 0.03 0.03 36 1010.6
20260502202225 60 24 3.0 5.0 0.00 0.03 0.03 37 1010.6
20260502202141 60 12 2.0 3.0 0.00 0.03 0.03 37 1010.8
20260502202016 60 359 2.0 3.0 0.00 0.03 0.03 37 1010.7
20260502201928 60 50 3.0 4.0 0.00 0.03 0.03 36 1010.6
20260502201823 60 333 2.0 4.0 0.00 0.03 0.03 37 1010.6
20260502201719 60 344 2.0 3.0 0.00 0.03 0.03 37 1010.8
20260502201631 60 355 3.0 5.0 0.00 0.03 0.03 36 1010.7
20260502201526 61 49 3.0 5.0 0.00 0.03 0.03 35 1010.8
20260502201421 61 4 2.0 4.0 0.00 0.03 0.03 36 1010.6
20260502201317 61 9 3.0 5.0 0.00 0.03 0.03 36 1010.7
20260502201249 61 357 2.0 4.0 0.00 0.03 0.03 36 1010.8
20260502201124 61 263 2.0 8.0 0.00 0.03 0.03 37 1010.8
20260502201020 61 283 2.0 3.0 0.00 0.03 0.03 37 1010.8
20260502200956 61 342 1.0 2.0 0.00 0.03 0.03 36 1010.7
20260502200847 61 45 1.0 2.0 0.00 0.03 0.03 36 1010.8
20260502200723 61 241 2.0 3.0 0.00 0.03 0.03 36 1010.6
20260502200619 61 356 1.0 2.0 0.00 0.03 0.03 35 1010.6
20260502200530 61 345 2.0 4.0 0.00 0.03 0.03 37 1010.8
20260502200426 61 173 2.0 3.0 0.00 0.03 0.03 36 1010.9
20260502200321 61 189 2.0 4.0 0.00 0.03 0.03 37 1010.8
20260502200217 61 108 1.0 3.0 0.00 0.03 0.03 37 1010.7
20260502200128 62 323 2.0 3.0 0.00 0.03 0.03 35 1010.8
20260502200044 62 181 2.0 3.0 0.00 0.03 0.03 36 1010.7
20260502195920 62 304 2.0 3.0 0.00 0.03 0.03 35 1010.8
20260502195815 62 92 2.0 3.0 0.00 0.03 0.03 34 1010.8
20260502195727 62 350 2.0 3.0 0.00 0.03 0.03 35 1010.9
20260502195622 62 325 3.0 4.0 0.00 0.03 0.03 36 1010.8
20260502195518 62 36 1.0 3.0 0.00 0.03 0.03 35 1010.9
20260502195430 63 59 2.0 3.0 0.00 0.03 0.03 35 1011.0
20260502195325 62 271 1.0 3.0 0.00 0.03 0.03 36 1011.0
20260502195221 62 3 2.0 4.0 0.00 0.03 0.03 34 1010.9
20260502195116 62 332 3.0 6.0 0.00 0.03 0.03 36 1010.9
20260502195048 62 349 4.0 6.0 0.00 0.03 0.03 36 1010.9
20260502194923 62 38 3.0 6.0 0.00 0.03 0.03 37 1010.9
20260502194819 62 46 2.0 4.0 0.00 0.03 0.03 34 1011.0
20260502194731 62 35 3.0 5.0 0.00 0.03 0.03 35 1010.9
20260502194626 62 48 4.0 6.0 0.00 0.03 0.03 34 1011.0
20260502194522 63 20 2.0 3.0 0.00 0.03 0.03 35 1011.0
20260502194417 63 12 2.0 3.0 0.00 0.03 0.03 35 1011.1
20260502194329 63 20 2.0 3.0 0.00 0.03 0.03 36 1011.1
20260502194245 63 331 3.0 5.0 0.00 0.03 0.03 35 1011.0
20260502194140 63 13 1.0 4.0 0.00 0.03 0.03 35 1011.0
20260502194016 63 62 2.0 4.0 0.00 0.03 0.03 34 1011.2
20260502193927 63 92 1.0 3.0 0.00 0.03 0.03 34 1010.9
20260502193843 64 17 1.0 3.0 0.00 0.03 0.03 34 1011.1
20260502193718 63 219 3.0 4.0 0.00 0.03 0.03 34 1011.2
20260502193630 63 314 2.0 4.0 0.00 0.03 0.03 37 1011.1
20260502193526 63 40 1.0 3.0 0.00 0.03 0.03 38 1011.0
20260502193421 62 71 2.0 4.0 0.00 0.03 0.03 36 1011.0
20260502193317 62 50 1.0 3.0 0.00 0.03 0.03 35 1011.1
20260502193248 62 312 2.0 5.0 0.00 0.03 0.03 36 1011.2
20260502193124 62 201 2.0 4.0 0.00 0.03 0.03 34 1011.3
20260502193040 62 219 3.0 4.0 0.00 0.03 0.03 36 1011.1
20260502192915 62 331 2.0 6.0 0.00 0.03 0.03 36 1011.2
20260502192827 62 320 5.0 9.0 0.00 0.03 0.03 35 1011.4
20260502192723 62 341 3.0 6.0 0.00 0.03 0.03 37 1011.0
20260502192618 63 11 4.0 6.0 0.00 0.03 0.03 37 1011.3
20260502192530 63 300 2.0 5.0 0.00 0.03 0.03 35 1011.2
20260502192425 63 354 3.0 4.0 0.00 0.03 0.03 37 1011.1
20260502192321 63 10 2.0 4.0 0.00 0.03 0.03 35 1011.1
20260502192216 63 324 3.0 7.0 0.00 0.03 0.03 37 1011.3
20260502192128 63 42 3.0 5.0 0.00 0.03 0.03 36 1011.2
20260502192024 63 350 3.0 6.0 0.00 0.03 0.03 37 1011.4
20260502191919 63 332 5.0 6.0 0.00 0.03 0.03 36 1011.2
20260502191815 63 295 3.0 6.0 0.00 0.03 0.03 36 1011.2
20260502191727 63 351 3.0 7.0 0.00 0.03 0.03 37 1011.5
20260502191622 63 1 2.0 3.0 0.00 0.03 0.03 36 1011.5
20260502191518 63 268 2.0 4.0 0.00 0.03 0.03 36 1011.6
20260502191430 64 212 1.0 4.0 0.00 0.03 0.03 36 1011.5
20260502191325 64 209 3.0 4.0 0.00 0.03 0.03 38 1011.5
20260502191220 64 331 2.0 3.0 0.00 0.03 0.03 38 1011.5
20260502191128 63 300 2.0 4.0 0.00 0.03 0.03 37 1011.5
20260502190924 63 249 2.0 7.0 0.00 0.03 0.03 38 1011.5
20260502190819 63 205 6.0 9.0 0.00 0.03 0.03 36 1011.4
20260502190731 63 189 3.0 4.0 0.00 0.03 0.03 38 1011.5
20260502190626 63 339 2.0 5.0 0.00 0.03 0.03 36 1011.5
20260502190522 62 238 1.0 2.0 0.00 0.03 0.03 37 1011.6
20260502190418 62 108 1.0 3.0 0.00 0.03 0.03 36 1011.4
20260502190329 62 113 2.0 3.0 0.00 0.03 0.03 37 1011.5
20260502190224 62 61 2.0 3.0 0.00 0.03 0.03 38 1011.5
20260502190120 62 45 3.0 5.0 0.00 0.03 0.03 39 1011.6
20260502190015 62 43 2.0 4.0 0.00 0.03 0.03 39 1011.7
20260502185927 62 46 5.0 6.0 0.00 0.03 0.03 37 1011.6
20260502185823 62 20 3.0 4.0 0.00 0.03 0.03 38 1011.6
20260502185718 62 30 1.0 2.0 0.00 0.03 0.03 40 1011.7
20260502185630 62 121 3.0 6.0 0.00 0.03 0.03 37 1011.6
20260502185525 62 321 3.0 5.0 0.00 0.03 0.03 37 1011.6
20260502185421 62 329 4.0 7.0 0.00 0.03 0.03 37 1011.6
20260502185337 63 1 4.0 6.0 0.00 0.03 0.03 39 1011.8
20260502185228 63 12 3.0 6.0 0.00 0.03 0.03 38 1011.7
20260502185124 62 204 2.0 3.0 0.00 0.03 0.03 40 1011.9
20260502185019 62 304 2.0 3.0 0.00 0.03 0.03 37 1011.5
20260502184931 62 180 2.0 4.0 0.00 0.03 0.03 40 1011.6
20260502184826 62 249 1.0 3.0 0.00 0.03 0.03 39 1011.6
20260502184722 62 20 2.0 4.0 0.00 0.03 0.03 41 1011.7
20260502184618 62 347 2.0 6.0 0.00 0.03 0.03 39 1011.8
20260502184610 62 22 3.0 3.0 0.00 0.03 0.03 41 1011.9
20260502184425 61 348 3.0 6.0 0.00 0.03 0.03 39 1011.8
20260502184321 62 327 4.0 7.0 0.00 0.03 0.03 40 1011.8
20260502184216 61 320 5.0 9.0 0.00 0.03 0.03 40 1011.8
20260502184128 61 48 2.0 6.0 0.00 0.03 0.03 41 1011.7
20260502184023 61 335 4.0 6.0 0.00 0.03 0.03 40 1011.8
20260502183919 61 351 2.0 4.0 0.00 0.03 0.03 38 1011.6
20260502183851 61 9 1.0 4.0 0.00 0.03 0.03 40 1011.8
20260502183726 62 305 3.0 5.0 0.00 0.03 0.03 38 1011.8
20260502183622 62 44 1.0 3.0 0.00 0.03 0.03 40 1011.8
20260502183518 62 8 2.0 5.0 0.00 0.03 0.03 38 1011.9
20260502183509 63 277 4.0 5.0 0.00 0.03 0.03 39 1011.8
20260502183325 63 242 2.0 7.0 0.00 0.03 0.03 39 1011.7
20260502183221 63 240 3.0 4.0 0.00 0.03 0.03 37 1011.9
20260502183116 63 195 2.0 4.0 0.00 0.03 0.03 38 1011.9
20260502183048 62 216 2.0 3.0 0.00 0.03 0.03 40 1011.7
20260502182923 62 340 3.0 3.0 0.00 0.03 0.03 38 1012.0
20260502182819 62 194 1.0 3.0 0.00 0.03 0.03 43 1011.9
20260502182731 62 328 2.0 5.0 0.00 0.03 0.03 40 1011.9
20260502182522 62 190 2.0 3.0 0.00 0.03 0.03 42 1011.8
20260502182417 61 260 4.0 5.0 0.00 0.03 0.03 41 1012.0
20260502182329 61 279 2.0 6.0 0.00 0.03 0.03 40 1012.0
20260502182224 61 330 4.0 9.0 0.00 0.03 0.03 40 1012.0
20260502182120 61 229 1.0 2.0 0.00 0.03 0.03 43 1011.9
20260502182016 61 79 2.0 3.0 0.00 0.03 0.03 42 1011.8
20260502181927 60 78 1.0 3.0 0.00 0.03 0.03 42 1011.9
20260502181822 61 47 3.0 6.0 0.00 0.03 0.03 41 1012.0
20260502181718 61 61 3.0 4.0 0.00 0.03 0.03 43 1012.0
20260502181630 60 45 3.0 4.0 0.00 0.03 0.03 46 1011.9
20260502181526 59 48 2.0 4.0 0.00 0.03 0.03 45 1012.1
20260502181441 59 105 4.0 6.0 0.00 0.03 0.03 42 1011.9
20260502181317 59 75 3.0 6.0 0.00 0.03 0.03 43 1012.1
20260502181228 59 54 2.0 4.0 0.00 0.03 0.03 43 1011.9
20260502181124 59 3 2.0 3.0 0.00 0.03 0.03 44 1011.9
20260502181020 60 49 3.0 4.0 0.00 0.03 0.03 42 1012.1
20260502180915 60 47 4.0 6.0 0.00 0.03 0.03 43 1012.0
20260502180827 60 61 3.0 5.0 0.00 0.03 0.03 43 1012.2
20260502180722 60 351 2.0 5.0 0.00 0.03 0.03 44 1012.2
20260502180618 60 339 2.0 5.0 0.00 0.03 0.03 43 1012.0
20260502180530 61 3 2.0 5.0 0.00 0.03 0.03 43 1012.2
20260502180425 61 315 2.0 6.0 0.00 0.03 0.03 44 1012.1
20260502180320 61 359 3.0 5.0 0.00 0.03 0.03 44 1011.9
20260502180236 61 51 4.0 6.0 0.00 0.03 0.03 44 1012.1
20260502180127 61 57 4.0 6.0 0.00 0.03 0.03 44 1012.0
20260502170416 58 26 4.0 6.0 0.00 0.03 0.03 45 1012.4
20260502170328 58 3 2.0 5.0 0.00 0.03 0.03 48 1012.5
20260502170223 58 49 2.0 3.0 0.00 0.03 0.03 49 1012.4
20260502170119 58 9 2.0 3.0 0.00 0.03 0.03 49 1012.5
20260502164320 58 226 3.0 4.0 0.00 0.03 0.03 47 1012.8
20260502164216 59 5 2.0 4.0 0.00 0.03 0.03 48 1012.8
20260502164127 58 12 3.0 6.0 0.00 0.03 0.03 50 1012.8
20260502164023 58 350 1.0 5.0 0.00 0.03 0.03 49 1013.0
20260502163919 58 241 1.0 4.0 0.00 0.03 0.03 51 1012.9
20260502163830 58 211 3.0 5.0 0.00 0.03 0.03 53 1012.8
20260502163726 57 151 2.0 3.0 0.00 0.03 0.03 51 1013.0
20260502163622 57 336 1.0 5.0 0.00 0.03 0.03 50 1013.1
20260502163517 57 319 3.0 5.0 0.00 0.03 0.03 51 1013.1
20260502163449 57 344 2.0 4.0 0.00 0.03 0.03 52 1012.9
20260502163325 57 14 5.0 8.0 0.00 0.03 0.03 52 1013.1
20260502163220 57 265 2.0 4.0 0.00 0.03 0.03 53 1013.1
20260502163116 57 143 2.0 4.0 0.00 0.03 0.03 53 1013.0
20260502163027 57 359 3.0 4.0 0.00 0.03 0.03 52 1013.1
20260502162923 57 335 2.0 4.0 0.00 0.03 0.03 51 1013.1
20260502162839 57 146 3.0 4.0 0.00 0.03 0.03 52 1013.0
20260502162730 57 296 2.0 4.0 0.00 0.03 0.03 52 1013.2
20260502162646 57 355 3.0 6.0 0.00 0.03 0.03 52 1013.3
20260502162521 57 347 3.0 6.0 0.00 0.03 0.03 53 1012.9
20260502162417 57 73 1.0 2.0 0.00 0.03 0.03 52 1013.0
20260502162329 57 66 3.0 5.0 0.00 0.03 0.03 52 1013.2
20260502162224 58 339 3.0 5.0 0.00 0.03 0.03 53 1012.9
20260502162120 58 345 4.0 5.0 0.00 0.03 0.03 53 1012.9
20260502162016 57 13 2.0 3.0 0.00 0.03 0.03 55 1013.0
20260502161927 57 46 2.0 4.0 0.00 0.03 0.03 55 1013.0
20260502161823 57 22 2.0 4.0 0.00 0.03 0.03 56 1013.0
20260502161718 57 59 3.0 6.0 0.00 0.03 0.03 55 1013.0
20260502161630 57 68 5.0 7.0 0.00 0.03 0.03 53 1012.9
20260502161526 57 51 3.0 5.0 0.00 0.03 0.03 57 1012.8
20260502161421 57 1 3.0 5.0 0.00 0.03 0.03 56 1012.9
20260502161317 57 171 2.0 4.0 0.00 0.03 0.03 56 1013.0
20260502161249 57 327 4.0 8.0 0.00 0.03 0.03 56 1012.9
20260502161144 57 352 2.0 4.0 0.00 0.03 0.03 55 1012.9
20260502161020 57 349 4.0 5.0 0.00 0.03 0.03 56 1012.9
20260502160915 56 340 2.0 4.0 0.00 0.03 0.03 57 1012.9
20260502160827 56 55 3.0 4.0 0.00 0.03 0.03 55 1013.1
20260502160723 56 49 4.0 8.0 0.00 0.03 0.03 55 1012.9
20260502160618 56 52 6.0 10.0 0.00 0.03 0.03 54 1012.8
20260502160530 56 52 4.0 6.0 0.00 0.03 0.03 55 1012.9
20260502160426 57 37 6.0 9.0 0.00 0.03 0.03 55 1012.9
20260502160321 57 53 3.0 5.0 0.00 0.03 0.03 56 1013.0
20260502160217 57 340 2.0 4.0 0.00 0.03 0.03 55 1012.9
20260502160128 57 39 4.0 6.0 0.00 0.03 0.03 58 1013.0
20260502152322 55 20 1.0 2.0 0.00 0.03 0.03 63 1012.9
20260502152217 55 357 3.0 6.0 0.00 0.03 0.03 62 1013.0
20260502152129 55 53 5.0 6.0 0.00 0.03 0.03 61 1013.0
20260502152025 55 64 2.0 3.0 0.00 0.03 0.03 62 1013.1
20260502152020 55 67 2.0 3.0 0.00 0.03 0.03 63 1013.1
20260502151816 55 51 2.0 2.0 0.00 0.03 0.03 63 1013.1
20260502151747 55 341 3.0 5.0 0.00 0.03 0.03 63 1013.2
20260502151623 54 16 2.0 4.0 0.00 0.03 0.03 63 1013.0
20260502151519 54 355 2.0 4.0 0.00 0.03 0.03 63 1013.0
20260502151430 54 312 2.0 5.0 0.00 0.03 0.03 65 1013.2
20260502151326 54 330 2.0 6.0 0.00 0.03 0.03 63 1013.1
20260502151241 55 338 4.0 6.0 0.00 0.03 0.03 63 1013.2
20260502151117 55 359 2.0 4.0 0.00 0.03 0.03 65 1013.2
20260502151028 54 28 2.0 3.0 0.00 0.03 0.03 65 1013.2
20260502150944 54 355 2.0 3.0 0.00 0.03 0.03 65 1013.3
20260502150820 54 27 4.0 5.0 0.00 0.03 0.03 64 1013.2
20260502150735 54 330 3.0 4.0 0.00 0.03 0.03 65 1013.2
20260502150627 54 304 3.0 6.0 0.00 0.03 0.03 65 1013.1
20260502150523 54 1 2.0 2.0 0.00 0.03 0.03 65 1012.9
20260502150418 54 23 2.0 3.0 0.00 0.03 0.03 64 1013.1
20260502150330 54 25 3.0 5.0 0.00 0.03 0.03 64 1013.0
20260502150226 54 45 5.0 6.0 0.00 0.03 0.03 64 1013.1
20260502150121 54 16 3.0 6.0 0.00 0.03 0.03 65 1013.1
20260502130717 53 346 2.0 4.0 0.00 0.03 0.03 78 1013.2
20260502130649 53 352 2.0 5.0 0.00 0.03 0.03 78 1013.2
20260502130524 54 52 2.0 3.0 0.00 0.03 0.03 78 1013.3
20260502130420 54 2 1.0 3.0 0.00 0.03 0.03 78 1013.3
20260502130336 54 337 2.0 4.0 0.00 0.03 0.03 79 1013.3
20260502130227 54 349 2.0 4.0 0.00 0.03 0.03 79 1013.1
20260502130123 54 3 3.0 3.0 0.00 0.03 0.03 79 1013.1
20260502123723 52 295 2.0 3.0 0.00 0.03 0.03 85 1013.2
20260502123618 52 300 2.0 3.0 0.00 0.03 0.03 85 1013.2
20260502123530 52 250 1.0 2.0 0.00 0.03 0.03 86 1013.2
20260502123425 52 179 2.0 3.0 0.00 0.03 0.03 86 1013.0
20260502123321 52 170 1.0 2.0 0.00 0.03 0.03 86 1013.1
20260502123216 52 305 1.0 3.0 0.00 0.03 0.03 86 1013.1
20260502123148 52 150 0.0 2.0 0.00 0.03 0.03 86 1013.1
20260502123024 51 215 1.0 2.0 0.00 0.03 0.03 86 1013.2
20260502122920 52 346 1.0 2.0 0.00 0.03 0.03 86 1013.0
20260502122815 52 109 1.0 2.0 0.00 0.03 0.03 87 1013.2
20260502122727 51 180 1.0 3.0 0.00 0.03 0.03 87 1013.1
20260502122622 51 187 3.0 4.0 0.00 0.03 0.03 87 1013.3
20260502122518 52 197 2.0 3.0 0.00 0.03 0.03 87 1013.2
20260502122430 52 38 1.0 2.0 0.00 0.03 0.03 88 1013.1
20260502122345 52 184 1.0 2.0 0.00 0.03 0.03 88 1013.2
20260502122221 52 22 0.0 2.0 0.00 0.03 0.03 88 1013.1
20260502122116 51 111 1.0 2.0 0.00 0.03 0.03 88 1013.1
20260502122028 51 74 1.0 2.0 0.00 0.03 0.03 88 1013.1
20260502121923 51 121 1.0 3.0 0.00 0.03 0.03 88 1012.9
20260502121819 51 182 1.0 2.0 0.00 0.03 0.03 88 1012.9
20260502121731 51 32 2.0 2.0 0.00 0.03 0.03 88 1013.0
20260502121626 51 59 0.0 2.0 0.00 0.03 0.03 88 1013.0
20260502121522 51 183 1.0 2.0 0.00 0.03 0.03 89 1013.0
20260502121417 51 170 2.0 3.0 0.00 0.03 0.03 89 1012.9
20260502121329 51 106 0.0 2.0 0.00 0.03 0.03 89 1013.0
20260502121225 51 194 0.0 2.0 0.00 0.03 0.03 89 1013.0
20260502121121 51 0.0 2.0 0.00 0.03 0.03 90 1012.8
20260502121108 51 185 2.0 3.0 0.00 0.03 0.03 90 1013.0
20260502121048 51 168 2.0 3.0 0.00 0.03 0.03 91 1012.9
20260502120823 51 169 2.0 3.0 0.00 0.03 0.03 91 1012.8
20260502120719 50 165 2.0 3.0 0.00 0.03 0.03 91 1012.9
20260502120631 50 149 1.0 2.0 0.00 0.03 0.03 91 1012.9
20260502120546 50 180 2.0 2.0 0.00 0.03 0.03 91 1013.0
20260502120422 50 73 1.0 2.0 0.00 0.03 0.03 91 1012.9
20260502120317 49 159 2.0 3.0 0.00 0.03 0.03 92 1013.0
20260502120229 50 178 3.0 4.0 0.00 0.03 0.03 92 1012.8
20260502120145 50 164 3.0 4.0 0.00 0.03 0.03 93 1013.0
20260502115916 50 177 2.0 3.0 0.00 0.03 0.03 94 1013.0
20260502115827 50 181 2.0 4.0 0.00 0.03 0.03 95 1012.9
20260502115723 50 149 2.0 3.0 0.00 0.03 0.03 95 1013.1
20260502115619 50 168 2.0 3.0 0.00 0.03 0.03 95 1013.0
20260502115530 50 180 2.0 3.0 0.00 0.03 0.03 95 1013.1
20260502115446 50 193 2.0 2.0 0.00 0.03 0.03 95 1013.0
20260502115322 50 177 1.0 2.0 0.00 0.03 0.03 96 1013.2
20260502115237 50 154 1.0 3.0 0.00 0.03 0.03 96 1013.0
20260502115209 50 141 2.0 3.0 0.00 0.03 0.03 96 1013.0
20260502115045 50 172 2.0 3.0 0.00 0.03 0.03 96 1013.1
20260502114920 49 164 2.0 3.0 0.00 0.03 0.03 96 1013.1
20260502114815 50 163 1.0 2.0 0.00 0.03 0.03 96 1013.1
20260502114747 50 146 0.0 2.0 0.00 0.03 0.03 96 1013.0
20260502114623 50 160 1.0 2.0 0.00 0.03 0.03 96 1012.9
20260502114518 50 0.0 1.0 0.00 0.03 0.03 96 1012.9
20260502114430 50 127 0.0 2.0 0.00 0.03 0.03 96 1012.9
20260502114326 50 151 1.0 2.0 0.00 0.03 0.03 96 1013.0
20260502114221 50 118 1.0 2.0 0.00 0.03 0.03 96 1012.9
20260502114117 49 99 0.0 2.0 0.00 0.03 0.03 96 1012.8
20260502114028 49 123 2.0 2.0 0.00 0.03 0.03 96 1012.9
20260502113924 49 146 1.0 2.0 0.00 0.03 0.03 96 1012.9
20260502113820 49 132 2.0 3.0 0.00 0.03 0.03 96 1012.8
20260502113715 49 119 2.0 3.0 0.00 0.03 0.03 96 1012.9
20260502113627 49 104 1.0 2.0 0.00 0.03 0.03 96 1012.9
20260502113522 49 134 2.0 2.0 0.00 0.03 0.03 97 1013.0
20260502113418 49 147 2.0 2.0 0.00 0.03 0.03 97 1012.8
20260502113330 49 146 2.0 2.0 0.00 0.03 0.03 97 1013.0
20260502113225 49 131 2.0 2.0 0.00 0.03 0.03 97 1012.8
20260502113121 49 160 2.0 3.0 0.00 0.03 0.03 97 1012.8
20260502113016 49 139 2.0 3.0 0.00 0.03 0.03 97 1013.0
20260502112928 49 126 2.0 3.0 0.00 0.03 0.03 97 1012.6
20260502112824 49 119 2.0 2.0 0.00 0.03 0.03 97 1012.8
20260502112720 49 150 2.0 2.0 0.00 0.03 0.03 97 1012.7
20260502112635 49 151 2.0 2.0 0.00 0.03 0.03 97 1012.7
20260502112527 49 151 1.0 3.0 0.00 0.03 0.03 97 1012.8
20260502112422 49 150 1.0 3.0 0.00 0.03 0.03 97 1012.7
20260502112318 49 151 1.0 2.0 0.00 0.03 0.03 97 1012.8
20260502112229 49 165 2.0 2.0 0.00 0.03 0.03 97 1012.8
20260502112205 49 144 1.0 2.0 0.00 0.03 0.03 97 1012.7
20260502112020 48 142 2.0 2.0 0.00 0.03 0.03 97 1012.8
20260502111916 48 147 1.0 2.0 0.00 0.03 0.03 97 1012.7
20260502111828 48 136 0.0 2.0 0.00 0.03 0.03 97 1012.6
20260502111724 48 14 1.0 2.0 0.00 0.03 0.03 97 1012.6
20260502111619 48 0.0 2.0 0.00 0.03 0.03 97 1012.6
20260502111551 48 49 0.0 2.0 0.00 0.03 0.03 97 1012.8
20260502111446 48 115 0.0 1.0 0.00 0.03 0.03 97 1012.6
20260502111322 48 0.0 1.0 0.00 0.03 0.03 97 1012.7
20260502111218 48 30 0.0 1.0 0.00 0.03 0.03 97 1012.8
20260502111130 48 0.0 1.0 0.00 0.03 0.03 97 1012.7
20260502111025 48 0.0 0.0 0.00 0.03 0.03 97 1012.7
20260502110920 48 76 1.0 2.0 0.00 0.03 0.03 97 1012.7
20260502110816 48 65 1.0 2.0 0.00 0.03 0.03 97 1012.8
20260502110728 48 145 0.0 2.0 0.00 0.03 0.03 97 1012.8
20260502110623 48 102 0.0 2.0 0.00 0.03 0.03 97 1012.9
20260502110519 48 0.0 2.0 0.00 0.03 0.03 97 1012.8
20260502110431 48 141 0.0 1.0 0.00 0.03 0.03 97 1012.9
20260502110326 48 124 1.0 2.0 0.00 0.03 0.03 97 1012.8
20260502110242 48 118 1.0 2.0 0.00 0.03 0.03 97 1012.7
20260502110117 48 147 1.0 2.0 0.00 0.03 0.03 97 1012.9
20260502110029 48 166 1.0 2.0 0.00 0.03 0.03 97 1012.8
20260502105925 48 171 1.0 2.0 0.00 0.03 0.03 96 1012.7
20260502105820 48 109 1.0 2.0 0.00 0.03 0.03 96 1012.8
20260502105716 48 0.0 1.0 0.00 0.03 0.03 96 1012.9
20260502105627 48 158 1.0 2.0 0.00 0.03 0.03 96 1012.6
20260502105523 48 163 1.0 2.0 0.00 0.03 0.03 96 1012.6
20260502105438 48 149 1.0 2.0 0.00 0.03 0.03 96 1012.8
20260502105330 48 160 2.0 2.0 0.00 0.03 0.03 96 1012.8
20260502105225 48 166 0.0 2.0 0.00 0.03 0.03 96 1012.7
20260502105121 48 163 1.0 1.0 0.00 0.03 0.03 96 1012.9
20260502105037 48 165 2.0 2.0 0.00 0.03 0.03 96 1012.8
20260502104929 48 170 2.0 2.0 0.00 0.03 0.03 96 1012.7
20260502104824 48 177 1.0 2.0 0.00 0.03 0.03 96 1012.7
20260502104720 48 186 1.0 2.0 0.00 0.03 0.03 96 1012.9
20260502104615 48 184 1.0 2.0 0.00 0.03 0.03 96 1012.8
20260502104547 48 137 1.0 2.0 0.00 0.03 0.03 96 1012.5
20260502104422 48 64 0.0 1.0 0.00 0.03 0.03 96 1012.5
20260502104318 48 0.0 1.0 0.00 0.03 0.03 96 1012.6
20260502104229 48 0.0 2.0 0.00 0.03 0.03 96 1012.5
20260502104125 48 154 1.0 2.0 0.00 0.03 0.03 96 1012.6
20260502104020 48 172 1.0 2.0 0.00 0.03 0.03 96 1012.5
20260502103916 48 175 2.0 3.0 0.00 0.03 0.03 96 1012.5
20260502103828 48 184 3.0 3.0 0.00 0.03 0.03 96 1012.6
20260502103724 47 177 2.0 4.0 0.00 0.03 0.03 96 1012.4
20260502103619 47 161 1.0 2.0 0.00 0.03 0.03 96 1012.3
20260502103531 47 164 1.0 2.0 0.00 0.03 0.03 96 1012.5
20260502103426 47 148 1.0 2.0 0.00 0.03 0.03 95 1012.5
20260502103322 48 149 1.0 2.0 0.00 0.03 0.03 95 1012.4
20260502103218 48 152 2.0 2.0 0.00 0.03 0.03 95 1012.5
20260502103129 48 157 2.0 2.0 0.00 0.03 0.03 95 1012.5
20260502103025 48 151 2.0 2.0 0.00 0.03 0.03 95 1012.4
20260502102920 48 156 2.0 2.0 0.00 0.03 0.03 95 1012.3
20260502102816 47 151 2.0 3.0 0.00 0.03 0.03 95 1012.5
20260502102728 47 147 2.0 2.0 0.00 0.03 0.03 95 1012.4
20260502102703 47 142 1.0 2.0 0.00 0.03 0.03 95 1012.3
20260502102519 47 0.0 2.0 0.00 0.03 0.03 95 1012.3
20260502102430 47 158 0.0 2.0 0.00 0.03 0.03 95 1012.3
20260502102326 47 130 1.0 2.0 0.01 0.03 0.03 95 1012.4
20260502102222 47 123 1.0 2.0 0.01 0.03 0.03 95 1012.4
20260502102117 47 0.0 2.0 0.01 0.03 0.03 95 1012.3
20260502102029 47 135 1.0 2.0 0.01 0.03 0.03 94 1012.1
20260502101925 48 121 1.0 2.0 0.01 0.03 0.03 94 1012.4
20260502101820 48 142 0.0 2.0 0.01 0.03 0.03 94 1012.3
20260502101716 47 112 1.0 2.0 0.01 0.03 0.03 94 1012.2
20260502101627 48 157 1.0 2.0 0.01 0.03 0.03 94 1011.9
20260502101523 47 169 0.0 2.0 0.01 0.03 0.03 94 1012.1
20260502101419 47 0.0 2.0 0.01 0.03 0.03 94 1012.0
20260502101330 47 0.0 1.0 0.01 0.03 0.03 94 1012.0
20260502101226 47 148 0.0 2.0 0.01 0.03 0.03 94 1012.1
20260502101121 47 158 0.0 2.0 0.01 0.03 0.03 94 1012.2
20260502101017 47 131 1.0 2.0 0.01 0.03 0.03 94 1012.1
20260502100929 47 146 1.0 2.0 0.01 0.03 0.03 94 1012.1
20260502100824 47 130 0.0 2.0 0.02 0.03 0.03 94 1012.1
20260502100720 48 0.0 1.0 0.02 0.03 0.03 94 1012.2
20260502100635 48 119 1.0 2.0 0.02 0.03 0.03 94 1012.2
20260502100527 48 137 1.0 2.0 0.02 0.03 0.03 94 1012.1
20260502100423 48 122 1.0 2.0 0.02 0.03 0.03 94 1012.2
20260502100339 48 142 1.0 2.0 0.02 0.03 0.03 94 1012.2
20260502100230 48 153 1.0 2.0 0.02 0.03 0.03 94 1012.1
20260502100126 48 142 1.0 2.0 0.02 0.03 0.03 94 1012.0
20260502091516 50 137 2.0 2.0 0.01 0.02 0.02 89 1012.4
20260502091427 50 132 1.0 3.0 0.01 0.02 0.02 89 1012.4
20260502091323 50 161 2.0 3.0 0.01 0.02 0.02 89 1012.3
20260502091218 50 156 1.0 2.0 0.01 0.02 0.02 88 1012.3
20260502091130 50 125 2.0 2.0 0.01 0.02 0.02 88 1012.3
20260502091026 50 94 2.0 3.0 0.01 0.02 0.02 88 1012.2
20260502090921 50 93 2.0 2.0 0.01 0.02 0.02 88 1012.2
20260502090817 50 99 2.0 3.0 0.00 0.01 0.01 88 1012.4
20260502090728 50 107 2.0 2.0 0.00 0.01 0.01 87 1012.4
20260502090624 50 149 2.0 3.0 0.00 0.01 0.01 87 1012.5
20260502090520 50 151 2.0 3.0 0.00 0.01 0.01 86 1012.5
20260502090415 50 174 1.0 2.0 0.00 0.01 0.01 86 1012.5
20260502090327 50 199 2.0 2.0 0.00 0.01 0.01 86 1012.4
20260502090222 50 177 2.0 3.0 0.00 0.01 0.01 86 1012.5
20260502090118 50 175 2.0 2.0 0.00 0.01 0.01 86 1012.4
20260502071531 51 161 1.0 2.0 0.01 0.01 0.01 81 1012.1
20260502071426 51 143 1.0 2.0 0.01 0.01 0.01 81 1011.9
20260502071322 51 179 0.0 3.0 0.01 0.01 0.01 81 1012.0
20260502071218 51 182 2.0 3.0 0.01 0.01 0.01 81 1012.1
20260502071129 51 180 2.0 2.0 0.01 0.01 0.01 81 1012.0
20260502071025 51 184 1.0 2.0 0.01 0.01 0.01 81 1011.9
20260502070920 51 192 1.0 2.0 0.01 0.01 0.01 81 1012.1
20260502070836 51 206 1.0 2.0 0.01 0.01 0.01 81 1012.1
20260502070727 51 212 2.0 2.0 0.01 0.01 0.01 82 1012.0
20260502070623 51 201 0.0 2.0 0.01 0.01 0.01 82 1012.0
20260502070539 51 175 2.0 2.0 0.01 0.01 0.01 81 1012.0
20260502070430 51 184 1.0 2.0 0.01 0.01 0.01 82 1012.2
20260502070346 51 142 1.0 2.0 0.01 0.01 0.01 82 1011.9
20260502070222 51 148 2.0 2.0 0.01 0.01 0.01 82 1012.1
20260502070117 51 152 1.0 2.0 0.01 0.01 0.01 82 1012.0
20260502070029 51 199 2.0 3.0 0.01 0.01 0.01 82 1012.0
20260502065924 51 197 2.0 4.0 0.01 0.01 0.01 82 1011.9
20260502065840 51 196 1.0 2.0 0.01 0.01 0.01 83 1012.2
20260502065715 51 177 2.0 3.0 0.01 0.01 0.01 82 1012.0
20260502065627 51 165 2.0 2.0 0.01 0.01 0.01 82 1012.1
20260502065522 51 164 2.0 2.0 0.01 0.01 0.01 82 1012.1
20260502065418 51 156 2.0 2.0 0.01 0.01 0.01 82 1012.0
20260502065330 51 159 2.0 3.0 0.01 0.01 0.01 83 1012.1
20260502065245 51 157 2.0 3.0 0.01 0.01 0.01 82 1012.0
20260502065121 51 160 2.0 3.0 0.01 0.01 0.01 82 1012.2
20260502065036 51 162 2.0 3.0 0.01 0.01 0.01 81 1012.2
20260502064928 51 179 3.0 3.0 0.01 0.01 0.01 81 1012.2
20260502064824 51 189 3.0 3.0 0.01 0.01 0.01 81 1012.1
20260502064719 51 187 2.0 3.0 0.01 0.01 0.01 80 1011.9
20260502064631 51 190 1.0 2.0 0.01 0.01 0.01 80 1012.0
20260502064526 51 201 1.0 2.0 0.01 0.01 0.01 80 1011.8
20260502064422 51 7 1.0 1.0 0.01 0.01 0.01 80 1011.9
20260502064318 52 0.0 1.0 0.01 0.01 0.01 80 1012.0
20260502064250 52 51 1.0 1.0 0.01 0.01 0.01 80 1012.2
20260502064125 52 22 0.0 1.0 0.01 0.01 0.01 80 1012.1
20260502064021 52 0.0 2.0 0.01 0.01 0.01 80 1012.0
20260502063916 52 93 0.0 2.0 0.01 0.01 0.01 80 1011.9
20260502063828 52 100 1.0 2.0 0.01 0.01 0.01 79 1012.0
20260502063724 52 145 2.0 3.0 0.01 0.01 0.01 79 1012.0
20260502063619 52 161 2.0 2.0 0.01 0.01 0.01 79 1011.9
20260502063531 52 118 1.0 2.0 0.01 0.01 0.01 79 1012.0
20260502063426 52 127 2.0 3.0 0.01 0.01 0.01 79 1012.2
20260502063342 52 144 1.0 2.0 0.01 0.01 0.01 77 1012.3
20260502063218 52 205 1.0 2.0 0.01 0.01 0.01 77 1012.2
20260502063129 52 110 1.0 2.0 0.01 0.01 0.01 77 1012.2
20260502063025 52 157 0.0 2.0 0.01 0.01 0.01 77 1012.3
20260502062921 52 206 1.0 2.0 0.01 0.01 0.01 77 1012.4
20260502062816 52 195 1.0 2.0 0.01 0.01 0.01 77 1012.4
20260502062727 52 216 2.0 2.0 0.01 0.01 0.01 77 1012.2
20260502062623 53 221 2.0 3.0 0.01 0.01 0.01 76 1012.2
20260502062518 53 177 2.0 4.0 0.01 0.01 0.01 75 1012.2
20260502062430 53 180 1.0 3.0 0.00 0.00 0.00 75 1012.1
20260502062326 53 145 0.0 2.0 0.00 0.00 0.00 75 1012.2
20260502062221 53 155 1.0 2.0 0.00 0.00 0.00 74 1012.2
20260502062117 53 175 2.0 2.0 0.00 0.00 0.00 74 1012.4
20260502062028 53 218 1.0 2.0 0.00 0.00 0.00 73 1012.3
20260502061924 53 152 1.0 2.0 0.00 0.00 0.00 73 1012.3
20260502061839 53 181 2.0 2.0 0.00 0.00 0.00 72 1012.3
20260502061715 53 157 2.0 4.0 0.00 0.00 0.00 73 1012.4
20260502061627 53 166 1.0 3.0 0.00 0.00 0.00 72 1012.5
20260502061522 53 315 1.0 3.0 0.00 0.00 0.00 72 1012.5
20260502061418 53 195 2.0 3.0 0.00 0.00 0.00 72 1012.7
20260502061350 53 196 2.0 4.0 0.00 0.00 0.00 72 1012.6
20260502061245 53 193 2.0 4.0 0.00 0.00 0.00 72 1012.4
20260502061141 53 263 1.0 2.0 0.00 0.00 0.00 72 1012.4
20260502061016 53 195 2.0 4.0 0.00 0.00 0.00 72 1012.5
20260502060928 53 188 2.0 3.0 0.00 0.00 0.00 72 1012.6
20260502060823 53 203 3.0 5.0 0.00 0.00 0.00 72 1012.6
20260502060719 53 188 4.0 5.0 0.00 0.00 0.00 72 1012.5
20260502060631 53 203 1.0 2.0 0.00 0.00 0.00 72 1012.7
20260502060527 53 197 2.0 3.0 0.00 0.00 0.00 73 1012.7
20260502060442 53 168 1.0 2.0 0.00 0.00 0.00 73 1012.5
20260502060318 53 190 2.0 3.0 0.00 0.00 0.00 72 1012.7
20260502060249 53 190 2.0 4.0 0.00 0.00 0.00 72 1012.5
20260502060145 53 183 3.0 4.0 0.00 0.00 0.00 72 1012.5
20260502060021 53 179 2.0 3.0 0.00 0.00 0.00 71 1012.7
20260502055916 53 187 2.0 3.0 0.00 0.00 0.00 71 1012.6
20260502055848 53 178 2.0 4.0 0.00 0.00 0.00 71 1012.6
20260502055723 53 207 1.0 2.0 0.00 0.00 0.00 71 1012.8
20260502055619 53 199 0.0 2.0 0.00 0.00 0.00 70 1012.9
20260502055611 53 186 1.0 4.0 0.00 0.00 0.00 70 1012.7
20260502055426 53 250 2.0 4.0 0.00 0.00 0.00 70 1012.7
20260502055322 53 184 2.0 4.0 0.00 0.00 0.00 70 1012.7
20260502055217 53 188 3.0 4.0 0.00 0.00 0.00 71 1012.7
20260502055129 53 188 2.0 3.0 0.00 0.00 0.00 71 1012.7
20260502055025 53 181 2.0 3.0 0.00 0.00 0.00 70 1012.6
20260502054920 53 203 2.0 2.0 0.00 0.00 0.00 70 1012.8
20260502054816 53 183 2.0 2.0 0.00 0.00 0.00 70 1012.7
20260502054727 53 188 2.0 2.0 0.00 0.00 0.00 70 1012.9
20260502054623 53 196 2.0 3.0 0.00 0.00 0.00 70 1012.5
20260502054523 53 209 1.0 3.0 0.00 0.00 0.00 70 1012.6
20260502054430 53 184 1.0 4.0 0.00 0.00 0.00 70 1012.5
20260502054326 53 176 1.0 2.0 0.00 0.00 0.00 70 1012.5
20260502054221 53 196 1.0 2.0 0.00 0.00 0.00 70 1012.7
20260502054117 53 243 0.0 2.0 0.00 0.00 0.00 69 1012.5
20260502054029 53 0.0 2.0 0.00 0.00 0.00 70 1012.5
20260502053924 53 171 2.0 3.0 0.00 0.00 0.00 70 1012.7
20260502053819 53 174 3.0 3.0 0.00 0.00 0.00 70 1012.7
20260502053715 53 164 1.0 2.0 0.00 0.00 0.00 70 1012.7
20260502053627 53 158 0.0 2.0 0.00 0.00 0.00 69 1012.7
20260502053522 53 228 1.0 3.0 0.00 0.00 0.00 69 1012.5
20260502053418 53 214 1.0 2.0 0.00 0.00 0.00 70 1012.6
20260502053329 53 171 1.0 2.0 0.00 0.00 0.00 70 1012.6
20260502053225 53 171 1.0 2.0 0.00 0.00 0.00 69 1012.4
20260502053121 53 177 2.0 2.0 0.00 0.00 0.00 69 1012.4
20260502053016 53 188 1.0 2.0 0.00 0.00 0.00 69 1012.4
20260502052928 53 177 1.0 3.0 0.00 0.00 0.00 69 1012.4
20260502052824 53 211 2.0 2.0 0.00 0.00 0.00 69 1012.4
20260502052719 53 178 1.0 2.0 0.00 0.00 0.00 68 1012.2
20260502052651 53 185 1.0 2.0 0.00 0.00 0.00 68 1012.4
20260502052546 53 175 1.0 2.0 0.00 0.00 0.00 68 1012.4
20260502052442 53 224 2.0 3.0 0.00 0.00 0.00 68 1012.5
20260502052317 53 193 3.0 4.0 0.00 0.00 0.00 68 1012.5
20260502052249 53 205 1.0 2.0 0.00 0.00 0.00 68 1012.5
20260502052125 53 201 2.0 3.0 0.00 0.00 0.00 68 1012.7
20260502052020 53 173 2.0 3.0 0.00 0.00 0.00 68 1012.6
20260502051916 53 186 3.0 4.0 0.00 0.00 0.00 67 1012.5
20260502051827 53 190 2.0 3.0 0.00 0.00 0.00 67 1012.5
20260502051723 54 187 2.0 3.0 0.00 0.00 0.00 67 1012.5
20260502051618 54 202 2.0 3.0 0.00 0.00 0.00 67 1012.5
20260502051530 54 193 2.0 5.0 0.00 0.00 0.00 67 1012.5
20260502051426 54 191 2.0 4.0 0.00 0.00 0.00 67 1012.6
20260502051321 54 210 3.0 4.0 0.00 0.00 0.00 67 1012.4
20260502051217 54 183 3.0 4.0 0.00 0.00 0.00 67 1012.5
20260502051128 54 187 2.0 3.0 0.00 0.00 0.00 67 1012.4
20260502051024 54 189 3.0 4.0 0.00 0.00 0.00 66 1012.5
20260502050919 54 188 3.0 4.0 0.00 0.00 0.00 67 1012.6
20260502050815 54 174 2.0 3.0 0.00 0.00 0.00 67 1012.5
20260502050747 54 161 2.0 2.0 0.00 0.00 0.00 67 1012.4
20260502050622 54 156 2.0 3.0 0.00 0.00 0.00 67 1012.5
20260502050518 54 177 2.0 3.0 0.00 0.00 0.00 67 1012.7
20260502050430 54 170 2.0 3.0 0.00 0.00 0.00 67 1012.5
20260502050325 54 168 2.0 3.0 0.00 0.00 0.00 66 1012.4
20260502050221 54 176 2.0 4.0 0.00 0.00 0.00 66 1012.5
20260502050116 54 163 2.0 3.0 0.00 0.00 0.00 66 1012.6
20260502050028 54 168 2.0 2.0 0.00 0.00 0.00 66 1012.6
20260502045923 54 0.0 1.0 0.00 0.00 0.00 65 1012.6
20260502045819 54 190 1.0 3.0 0.00 0.00 0.00 65 1012.6
20260502045731 54 195 2.0 3.0 0.00 0.00 0.00 65 1012.6
20260502045726 54 171 1.0 2.0 0.00 0.00 0.00 65 1012.7
20260502045522 54 163 1.0 2.0 0.00 0.00 0.00 65 1012.6
20260502045417 54 194 0.0 3.0 0.00 0.00 0.00 64 1012.6
20260502045329 54 183 2.0 4.0 0.00 0.00 0.00 65 1012.6
20260502045225 54 191 2.0 4.0 0.00 0.00 0.00 65 1012.7
20260502045120 54 186 1.0 3.0 0.00 0.00 0.00 64 1012.8
20260502045016 54 227 1.0 3.0 0.00 0.00 0.00 64 1012.6
20260502044927 54 193 1.0 2.0 0.00 0.00 0.00 64 1012.7
20260502044823 54 197 1.0 4.0 0.00 0.00 0.00 64 1012.5
20260502044718 54 200 3.0 4.0 0.00 0.00 0.00 64 1012.6
20260502044630 54 192 2.0 3.0 0.00 0.00 0.00 64 1012.6
20260502044526 54 179 1.0 3.0 0.00 0.00 0.00 64 1012.4
20260502044421 54 180 2.0 3.0 0.00 0.00 0.00 64 1012.4
20260502044317 54 182 3.0 4.0 0.00 0.00 0.00 63 1012.6
20260502044249 54 185 2.0 3.0 0.00 0.00 0.00 64 1012.4
20260502044204 54 173 2.0 2.0 0.00 0.00 0.00 65 1012.4
20260502044020 54 166 2.0 2.0 0.00 0.00 0.00 65 1012.3
20260502043935 54 161 2.0 3.0 0.00 0.00 0.00 64 1012.4
20260502043827 54 159 1.0 2.0 0.00 0.00 0.00 65 1012.4
20260502043723 55 167 1.0 2.0 0.00 0.00 0.00 64 1012.3
20260502043618 55 120 2.0 3.0 0.00 0.00 0.00 63 1012.2
20260502043530 55 214 3.0 4.0 0.00 0.00 0.00 62 1012.4
20260502043425 54 173 2.0 3.0 0.00 0.00 0.00 64 1012.4
20260502043321 54 179 3.0 4.0 0.00 0.00 0.00 62 1012.2
20260502043217 54 159 2.0 3.0 0.00 0.00 0.00 63 1012.4
20260502043128 54 168 2.0 3.0 0.00 0.00 0.00 63 1012.3
20260502043024 55 167 2.0 3.0 0.00 0.00 0.00 64 1012.2
20260502042920 55 164 1.0 2.0 0.00 0.00 0.00 62 1012.2
20260502042835 55 166 0.0 2.0 0.00 0.00 0.00 63 1012.3
20260502042727 55 125 1.0 2.0 0.00 0.00 0.00 62 1012.3
20260502042623 55 0.0 1.0 0.00 0.00 0.00 63 1012.3
20260502042518 55 127 0.0 1.0 0.00 0.00 0.00 63 1012.3
20260502042450 55 128 1.0 2.0 0.00 0.00 0.00 63 1012.3
20260502042325 55 126 2.0 2.0 0.00 0.00 0.00 63 1012.3
20260502042221 55 136 1.0 2.0 0.00 0.00 0.00 62 1012.2
20260502042117 55 146 1.0 2.0 0.00 0.00 0.00 62 1012.2
20260502042028 55 171 1.0 2.0 0.00 0.00 0.00 61 1012.5
20260502041924 55 171 2.0 3.0 0.00 0.00 0.00 60 1012.5
20260502041819 55 168 2.0 3.0 0.00 0.00 0.00 60 1012.5
20260502041751 55 179 2.0 3.0 0.00 0.00 0.00 60 1012.5
20260502041627 55 181 2.0 4.0 0.00 0.00 0.00 61 1012.4
20260502041522 55 166 2.0 3.0 0.00 0.00 0.00 60 1012.5
20260502041418 55 205 2.0 3.0 0.00 0.00 0.00 61 1012.5
20260502041329 55 212 1.0 2.0 0.00 0.00 0.00 61 1012.5
20260502041225 55 202 1.0 3.0 0.00 0.00 0.00 61 1012.7
20260502041121 55 179 1.0 2.0 0.00 0.00 0.00 62 1012.6
20260502041016 55 145 1.0 3.0 0.00 0.00 0.00 63 1012.4
20260502040928 55 155 1.0 3.0 0.00 0.00 0.00 61 1012.4
20260502040823 55 226 1.0 3.0 0.00 0.00 0.00 61 1012.4
20260502040719 55 76 0.0 2.0 0.00 0.00 0.00 62 1012.6
20260502040631 55 101 1.0 2.0 0.00 0.00 0.00 63 1012.5
20260502040526 55 138 1.0 2.0 0.00 0.00 0.00 63 1012.6
20260502040422 55 131 1.0 2.0 0.00 0.00 0.00 62 1012.5
20260502040337 55 0.0 2.0 0.00 0.00 0.00 63 1012.3
20260502040229 55 139 1.0 2.0 0.00 0.00 0.00 62 1012.6
20260502040145 55 174 2.0 2.0 0.00 0.00 0.00 61 1012.6
20260502040020 55 149 2.0 3.0 0.00 0.00 0.00 60 1012.5
20260502035936 55 187 2.0 4.0 0.00 0.00 0.00 59 1012.6
20260502035827 55 173 2.0 4.0 0.00 0.00 0.00 59 1012.5
20260502035823 55 153 2.0 5.0 0.00 0.00 0.00 60 1012.5
20260502035639 55 143 2.0 3.0 0.00 0.00 0.00 61 1012.6
20260502035530 55 157 1.0 2.0 0.00 0.00 0.00 62 1012.7
20260502035426 55 150 2.0 3.0 0.00 0.00 0.00 62 1012.5
20260502035321 55 161 2.0 3.0 0.00 0.00 0.00 61 1012.6
20260502035237 55 177 1.0 3.0 0.00 0.00 0.00 61 1012.7
20260502035129 55 160 1.0 3.0 0.00 0.00 0.00 59 1012.6
20260502035024 55 214 2.0 3.0 0.00 0.00 0.00 59 1012.6
20260502034920 55 258 2.0 4.0 0.00 0.00 0.00 59 1012.7
20260502034816 55 159 1.0 2.0 0.00 0.00 0.00 59 1012.7
20260502034727 55 177 1.0 2.0 0.00 0.00 0.00 60 1012.6
20260502034623 55 174 1.0 2.0 0.00 0.00 0.00 60 1012.7
20260502034519 55 205 0.0 2.0 0.00 0.00 0.00 60 1012.6
20260502034430 55 189 1.0 2.0 0.00 0.00 0.00 60 1012.6
20260502034346 55 156 1.0 2.0 0.00 0.00 0.00 60 1012.5
20260502034221 55 209 1.0 2.0 0.00 0.00 0.00 60 1012.5
20260502034117 55 159 1.0 2.0 0.00 0.00 0.00 61 1012.6
20260502034029 55 159 2.0 2.0 0.00 0.00 0.00 62 1012.4
20260502033944 55 144 1.0 2.0 0.00 0.00 0.00 64 1012.4
20260502033820 55 162 1.0 2.0 0.00 0.00 0.00 63 1012.4
20260502033715 55 194 1.0 2.0 0.00 0.00 0.00 62 1012.4
20260502033627 54 189 1.0 2.0 0.00 0.00 0.00 62 1012.3
20260502033523 54 188 1.0 2.0 0.00 0.00 0.00 63 1012.5
20260502033419 54 160 1.0 2.0 0.00 0.00 0.00 66 1012.3
20260502033330 54 141 1.0 2.0 0.00 0.00 0.00 67 1012.4
20260502033226 54 169 1.0 2.0 0.00 0.00 0.00 64 1012.2
20260502033121 54 196 0.0 3.0 0.00 0.00 0.00 64 1012.1
20260502033017 54 151 1.0 2.0 0.00 0.00 0.00 67 1012.2
20260502032949 54 122 1.0 2.0 0.00 0.00 0.00 68 1012.3
20260502032824 54 133 1.0 3.0 0.00 0.00 0.00 68 1012.3
20260502032740 54 120 1.0 3.0 0.00 0.00 0.00 67 1012.2
20260502032615 54 134 2.0 2.0 0.00 0.00 0.00 67 1012.2
20260502032527 54 149 2.0 2.0 0.00 0.00 0.00 67 1012.3
20260502032423 54 137 1.0 3.0 0.00 0.00 0.00 67 1012.2
20260502032338 54 121 1.0 1.0 0.00 0.00 0.00 67 1012.3
20260502032250 54 133 1.0 2.0 0.00 0.00 0.00 67 1012.4
20260502032125 54 125 2.0 2.0 0.00 0.00 0.00 67 1012.3
20260502032021 54 128 1.0 3.0 0.00 0.00 0.00 68 1012.3
20260502031916 54 116 1.0 2.0 0.00 0.00 0.00 68 1012.3
20260502031829 54 130 1.0 2.0 0.00 0.00 0.00 67 1012.1
20260502031724 54 108 1.0 2.0 0.00 0.00 0.00 67 1012.2
20260502031619 54 120 2.0 3.0 0.00 0.00 0.00 67 1012.3
20260502031531 54 151 2.0 2.0 0.00 0.00 0.00 66 1012.3
20260502031426 54 134 2.0 2.0 0.00 0.00 0.00 66 1012.2
20260502031322 54 132 2.0 3.0 0.00 0.00 0.00 66 1012.2
20260502031218 54 117 2.0 3.0 0.00 0.00 0.00 66 1012.3
20260502031149 54 132 2.0 2.0 0.00 0.00 0.00 66 1012.3
20260502031025 54 146 0.0 2.0 0.00 0.00 0.00 66 1012.4
20260502031000 54 114 1.0 2.0 0.00 0.00 0.00 66 1012.3
20260502030816 54 125 2.0 2.0 0.00 0.00 0.00 67 1012.3
20260502030728 54 119 1.0 2.0 0.00 0.00 0.00 67 1012.4
20260502030623 54 0.0 1.0 0.00 0.00 0.00 67 1012.3
20260502030519 54 0.0 1.0 0.00 0.00 0.00 68 1012.5
20260502030430 54 0.0 0.0 0.00 0.00 0.00 68 1012.6
20260502030326 54 129 0.0 1.0 0.00 0.00 0.00 68 1012.6
20260502030221 54 126 1.0 2.0 0.00 0.00 0.00 68 1012.4
20260502030117 54 136 2.0 2.0 0.00 0.00 0.00 67 1012.5
20260502030029 54 147 1.0 2.0 0.00 0.00 0.00 67 1012.5
20260502025924 54 120 2.0 2.0 0.00 0.00 0.00 66 1012.3
20260502025820 54 135 2.0 2.0 0.00 0.00 0.00 67 1012.4
20260502025716 54 127 2.0 3.0 0.00 0.00 0.00 66 1012.3
20260502025647 54 129 1.0 2.0 0.00 0.00 0.00 66 1012.3
20260502025523 54 66 0.0 1.0 0.00 0.00 0.00 66 1012.3
20260502025438 54 152 1.0 1.0 0.00 0.00 0.00 66 1012.5
20260502025330 54 0.0 1.0 0.00 0.00 0.00 66 1012.4
20260502025226 54 0.0 1.0 0.00 0.00 0.00 66 1012.5
20260502025121 54 0.0 1.0 0.00 0.00 0.00 67 1012.5
20260502025037 54 157 1.0 2.0 0.00 0.00 0.00 66 1012.4
20260502024929 54 129 2.0 3.0 0.00 0.00 0.00 64 1012.5
20260502024824 54 110 2.0 4.0 0.00 0.00 0.00 65 1012.3
20260502024719 54 116 2.0 3.0 0.00 0.00 0.00 65 1012.4
20260502024615 54 138 2.0 2.0 0.00 0.00 0.00 66 1012.6
20260502024547 54 106 2.0 2.0 0.00 0.00 0.00 65 1012.2
20260502024443 54 124 2.0 2.0 0.00 0.00 0.00 66 1012.4
20260502024318 54 127 1.0 2.0 0.00 0.00 0.00 66 1012.5
20260502024250 54 138 1.0 2.0 0.00 0.00 0.00 66 1012.6
20260502024125 54 123 1.0 2.0 0.00 0.00 0.00 66 1012.4
20260502024021 54 107 1.0 2.0 0.00 0.00 0.00 66 1012.5
20260502023916 54 103 1.0 2.0 0.00 0.00 0.00 66 1012.5
20260502023828 54 118 1.0 2.0 0.00 0.00 0.00 66 1012.6
20260502023744 54 117 2.0 2.0 0.00 0.00 0.00 66 1012.7
20260502023639 54 119 1.0 2.0 0.00 0.00 0.00 66 1012.6
20260502023531 54 111 2.0 2.0 0.00 0.00 0.00 66 1012.7
20260502023447 54 130 1.0 2.0 0.00 0.00 0.00 67 1012.4
20260502023322 54 0.0 1.0 0.00 0.00 0.00 66 1012.6
20260502023218 54 120 0.0 1.0 0.00 0.00 0.00 67 1012.6
20260502023129 54 0.0 0.0 0.00 0.00 0.00 67 1012.6
20260502023025 54 0.0 0.0 0.00 0.00 0.00 66 1012.7
20260502022921 54 0.0 0.0 0.00 0.00 0.00 66 1012.6
20260502022816 54 0.0 1.0 0.00 0.00 0.00 66 1012.6
20260502022728 54 137 0.0 1.0 0.00 0.00 0.00 66 1012.6
20260502022623 54 132 1.0 2.0 0.00 0.00 0.00 66 1012.6
20260502022519 54 0.0 2.0 0.00 0.01 0.00 65 1012.6
20260502022431 54 140 1.0 2.0 0.00 0.01 0.00 65 1012.6
20260502022326 54 164 1.0 2.0 0.00 0.01 0.00 66 1012.6
20260502022222 54 179 0.0 1.0 0.00 0.01 0.00 66 1012.6
20260502022157 54 156 1.0 2.0 0.00 0.01 0.00 65 1012.4
20260502022029 54 123 1.0 2.0 0.00 0.01 0.00 66 1012.6
20260502021945 54 134 2.0 2.0 0.00 0.01 0.00 65 1012.6
20260502021820 54 121 2.0 2.0 0.00 0.01 0.00 65 1012.6
20260502021716 54 128 2.0 2.0 0.00 0.01 0.00 65 1012.5
20260502021627 54 112 1.0 2.0 0.00 0.01 0.00 65 1012.5
20260502021523 54 138 2.0 2.0 0.00 0.01 0.00 66 1012.4
20260502021439 54 0.0 2.0 0.00 0.01 0.00 66 1012.7
20260502021330 54 145 1.0 2.0 0.00 0.01 0.00 66 1012.7
20260502021246 54 146 1.0 2.0 0.00 0.01 0.00 66 1012.5
20260502021141 54 129 1.0 2.0 0.00 0.01 0.00 66 1012.4
20260502021017 54 152 2.0 3.0 0.00 0.01 0.00 66 1012.4
20260502020929 54 135 1.0 2.0 0.00 0.01 0.00 65 1012.4
20260502020824 54 116 1.0 2.0 0.00 0.01 0.00 66 1012.5
20260502020740 54 99 0.0 1.0 0.00 0.01 0.00 66 1012.4
20260502020635 54 87 0.0 1.0 0.00 0.01 0.00 65 1012.5
20260502020547 54 82 0.0 2.0 0.00 0.02 0.00 65 1012.4
20260502020422 53 53 1.0 2.0 0.00 0.02 0.00 65 1012.3
20260502020318 53 83 1.0 1.0 0.00 0.02 0.00 65 1012.4
20260502020250 53 0.0 1.0 0.00 0.02 0.00 65 1012.4
20260502020125 53 106 1.0 2.0 0.00 0.02 0.00 65 1012.3
20260502020020 53 129 1.0 2.0 0.00 0.02 0.00 65 1012.5
20260502015916 53 145 1.0 2.0 0.00 0.02 0.00 65 1012.4
20260502015827 53 0.0 1.0 0.00 0.02 0.00 66 1012.3
20260502015723 53 0.0 0.0 0.00 0.02 0.00 66 1012.6
20260502015639 53 0.0 0.0 0.00 0.02 0.00 66 1012.4
20260502015531 53 0.0 0.0 0.00 0.02 0.00 66 1012.4
20260502015426 53 0.0 1.0 0.00 0.02 0.00 65 1012.5
20260502015402 53 108 1.0 2.0 0.00 0.02 0.00 65 1012.4
20260502015217 53 114 1.0 2.0 0.00 0.02 0.00 65 1012.3
20260502015149 53 108 2.0 2.0 0.00 0.02 0.00 65 1012.4
20260502015024 53 102 1.0 2.0 0.00 0.02 0.00 65 1012.3
20260502014940 53 103 1.0 3.0 0.00 0.02 0.00 65 1012.3
20260502014816 53 118 1.0 2.0 0.00 0.02 0.00 65 1012.4
20260502014727 53 108 1.0 2.0 0.00 0.02 0.00 65 1012.3
20260502014623 53 0.0 1.0 0.00 0.02 0.00 64 1012.4
20260502014519 53 130 0.0 2.0 0.00 0.02 0.00 64 1012.3
20260502014430 53 120 1.0 1.0 0.00 0.03 0.00 64 1012.2
20260502014326 54 0.0 1.0 0.00 0.03 0.00 64 1012.5
20260502014241 54 146 0.0 1.0 0.00 0.03 0.00 64 1012.3
20260502014117 54 44 0.0 2.0 0.00 0.03 0.00 64 1012.5
20260502014028 54 0.0 1.0 0.00 0.03 0.00 64 1012.5
20260502013944 54 28 0.0 2.0 0.00 0.03 0.00 64 1012.5
20260502013820 54 0.0 0.0 0.00 0.03 0.00 64 1012.2
20260502013715 54 99 0.0 1.0 0.00 0.03 0.00 63 1012.1
20260502013627 54 96 1.0 2.0 0.00 0.03 0.00 63 1012.3
20260502013523 54 106 1.0 2.0 0.00 0.03 0.00 63 1012.1
20260502013418 54 97 1.0 2.0 0.00 0.03 0.00 63 1012.2
20260502013350 54 97 1.0 2.0 0.00 0.03 0.00 63 1012.4
20260502013225 54 116 1.0 2.0 0.00 0.03 0.00 63 1012.3
20260502013121 54 0.0 2.0 0.00 0.03 0.00 63 1012.3
20260502013017 54 51 1.0 1.0 0.00 0.03 0.00 62 1012.5
20260502012928 54 142 0.0 1.0 0.00 0.03 0.00 62 1012.3
20260502012824 54 339 0.0 1.0 0.00 0.03 0.00 62 1012.4
20260502012739 54 0.0 1.0 0.00 0.03 0.00 62 1012.4
20260502012631 54 3 0.0 1.0 0.00 0.03 0.00 62 1012.3
20260502012527 54 0.0 1.0 0.00 0.03 0.00 62 1012.3
20260502012422 54 0.0 1.0 0.00 0.03 0.00 62 1012.1
20260502012317 54 0.0 1.0 0.00 0.03 0.00 62 1012.2
20260502012229 54 0.0 0.0 0.00 0.03 0.00 62 1012.3
20260502012124 54 52 0.0 1.0 0.00 0.03 0.00 62 1012.1
20260502012020 54 154 0.0 1.0 0.00 0.03 0.00 62 1012.3
20260502011916 54 121 1.0 1.0 0.00 0.03 0.00 62 1012.2
20260502011827 54 0.0 0.0 0.00 0.03 0.00 62 1012.0
20260502011723 54 0.0 1.0 0.00 0.03 0.00 62 1012.0
20260502011619 54 0.0 0.0 0.00 0.03 0.00 62 1012.2
20260502011531 55 140 0.0 2.0 0.00 0.03 0.00 62 1012.1
20260502011426 55 152 0.0 1.0 0.00 0.03 0.00 62 1012.1
20260502011322 55 0.0 1.0 0.00 0.03 0.00 61 1011.9
20260502011237 55 162 0.0 2.0 0.00 0.03 0.00 60 1011.9
20260502011129 55 147 1.0 2.0 0.00 0.03 0.00 60 1011.8
20260502011025 55 146 1.0 2.0 0.00 0.03 0.00 61 1011.9
20260502010920 55 123 1.0 2.0 0.00 0.03 0.00 60 1011.8
20260502010816 55 138 1.0 2.0 0.00 0.03 0.00 60 1011.9
20260502010748 55 138 1.0 2.0 0.00 0.03 0.00 60 1011.8
20260502010623 55 118 1.0 2.0 0.00 0.03 0.00 60 1011.9
20260502010519 55 139 0.0 1.0 0.00 0.03 0.00 59 1011.9
20260502010431 55 154 1.0 2.0 0.00 0.03 0.00 60 1011.8
20260502010326 56 154 1.0 2.0 0.00 0.03 0.00 60 1011.8
20260502010222 56 149 1.0 2.0 0.00 0.03 0.00 59 1011.8
20260502010118 56 0.0 1.0 0.00 0.03 0.00 59 1012.0
20260502010029 56 149 1.0 2.0 0.00 0.03 0.00 59 1011.8
20260502005925 56 123 2.0 3.0 0.00 0.03 0.00 58 1011.9
20260502005820 56 117 1.0 2.0 0.00 0.03 0.00 58 1011.8
20260502005716 56 104 1.0 2.0 0.00 0.03 0.00 58 1011.9
20260502005627 56 0.0 1.0 0.00 0.03 0.00 59 1012.0
20260502005543 56 0.0 1.0 0.00 0.03 0.00 59 1012.0
20260502005439 56 139 0.0 1.0 0.00 0.03 0.00 58 1011.9
20260502005351 56 93 1.0 2.0 0.00 0.03 0.00 58 1011.8
20260502005226 56 215 0.0 1.0 0.00 0.03 0.00 58 1011.8
20260502005142 56 0.0 1.0 0.00 0.03 0.00 58 1011.9
20260502005017 56 0.0 0.0 0.00 0.03 0.00 58 1012.0
20260502004929 56 349 0.0 2.0 0.00 0.03 0.00 58 1011.8
20260502004824 56 126 1.0 2.0 0.00 0.03 0.00 58 1011.8
20260502004720 56 152 0.0 1.0 0.00 0.03 0.00 58 1012.0
20260502004616 56 0.0 1.0 0.00 0.03 0.00 58 1011.9
20260502004547 56 117 1.0 2.0 0.00 0.03 0.00 57 1011.9
20260502004423 56 158 0.0 1.0 0.00 0.03 0.00 57 1011.7
20260502004318 57 159 1.0 2.0 0.00 0.03 0.00 56 1011.7
20260502004230 57 169 1.0 2.0 0.00 0.03 0.00 56 1011.7
20260502004126 57 134 0.0 2.0 0.00 0.03 0.00 56 1011.9
20260502004022 57 176 0.0 2.0 0.00 0.03 0.00 56 1011.8
20260502003917 57 165 1.0 2.0 0.00 0.03 0.00 55 1011.8
20260502003829 57 155 0.0 1.0 0.00 0.03 0.00 56 1011.8
20260502003724 57 166 0.0 2.0 0.00 0.03 0.00 55 1011.7
20260502003620 57 130 0.0 1.0 0.00 0.03 0.00 55 1011.7
20260502003515 57 136 1.0 2.0 0.00 0.03 0.00 55 1011.6
20260502003427 57 132 2.0 2.0 0.00 0.03 0.00 55 1011.7
20260502003322 57 127 1.0 2.0 0.00 0.03 0.00 54 1011.7
20260502003238 57 80 2.0 2.0 0.00 0.03 0.00 54 1011.6
20260502003150 58 120 2.0 2.0 0.00 0.03 0.00 55 1011.7
20260502003025 58 124 1.0 2.0 0.00 0.03 0.00 54 1011.5
20260502002921 58 115 1.0 2.0 0.00 0.03 0.00 54 1011.7
20260502002817 58 125 1.0 2.0 0.00 0.03 0.00 55 1011.6
20260502002748 58 119 1.0 3.0 0.00 0.03 0.00 54 1011.7
20260502002624 58 114 1.0 2.0 0.00 0.03 0.00 54 1011.6
20260502002520 58 106 2.0 2.0 0.00 0.03 0.00 53 1011.6
20260502002415 58 112 2.0 2.0 0.00 0.03 0.00 54 1011.7
20260502002327 58 119 2.0 3.0 0.00 0.03 0.00 54 1011.6
20260502002223 58 106 1.0 2.0 0.00 0.03 0.00 54 1011.6
20260502002118 58 138 1.0 2.0 0.00 0.03 0.00 53 1011.7
20260502002030 58 154 0.0 2.0 0.00 0.03 0.00 53 1011.6
20260502001925 58 128 0.0 2.0 0.00 0.03 0.00 53 1011.7
20260502001821 58 0.0 1.0 0.00 0.03 0.00 53 1011.7
20260502001736 58 155 0.0 2.0 0.00 0.03 0.00 53 1011.6
20260502001628 59 149 1.0 2.0 0.00 0.03 0.00 52 1011.7
20260502001524 59 137 1.0 2.0 0.00 0.03 0.00 52 1011.6
20260502001439 59 128 2.0 2.0 0.00 0.03 0.00 52 1011.7
20260502001335 59 144 1.0 2.0 0.00 0.03 0.00 51 1011.7
20260502001227 59 123 0.0 2.0 0.00 0.03 0.00 51 1011.7
20260502001122 59 137 1.0 2.0 0.00 0.03 0.00 51 1011.5
20260502001018 59 177 2.0 2.0 0.00 0.03 0.00 50 1011.5
20260502000929 59 163 2.0 2.0 0.00 0.03 0.00 50 1011.6
20260502000825 59 137 1.0 2.0 0.00 0.03 0.00 50 1011.7
20260502000721 59 141 1.0 2.0 0.00 0.03 0.00 50 1011.5
20260502000616 59 149 1.0 2.0 0.00 0.03 0.00 49 1011.6
20260502000528 59 175 1.0 2.0 0.00 0.03 0.00 49 1011.6
20260502000424 59 156 0.0 2.0 0.00 0.03 0.00 49 1011.6
20260502000319 60 188 1.0 2.0 0.00 0.03 0.00 48 1011.5
20260502000230 60 0.0 1.0 0.00 0.03 0.00 48 1011.5
20260502000126 60 171 1.0 2.0 0.00 0.03 0.00 48 1011.5
20260502000022 60 106 1.0 2.0 0.00 0.03 0.00 48 1011.4
20260501235917 60 0.0 2.0 0.00 0.03 0.00 48 1011.7
20260501235829 60 123 1.0 2.0 0.00 0.03 0.00 48 1011.6
20260501235724 60 132 1.0 2.0 0.00 0.03 0.00 47 1011.6
20260501235620 60 129 2.0 2.0 0.00 0.03 0.00 47 1011.4
20260501235536 60 121 1.0 3.0 0.00 0.03 0.00 47 1011.3
20260501235427 60 128 2.0 3.0 0.00 0.03 0.00 48 1011.3